| time (UTC) | temp F | wind direction | speed MPH | gust MPH | rain 1hr in | rain 24hr in | rain mn in | humidity % | barometer mb |
| 20260505041539 | 42 | 211 | 6.0 | 9.0 | 0.00 | 0.21 | 0.00 | 90 | 1007.3 |
| 20260505040047 | 42 | 205 | 6.0 | 11.0 | 0.00 | 0.21 | 0.00 | 90 | 1007.2 |
| 20260505034601 | 42 | 200 | 8.0 | 13.0 | 0.00 | 0.24 | 0.00 | 90 | 1006.9 |
| 20260505033042 | 42 | 223 | 8.0 | 14.0 | 0.00 | 0.24 | 0.00 | 90 | 1006.7 |
| 20260505031546 | 42 | 213 | 6.0 | 13.0 | 0.00 | 0.24 | 0.00 | 89 | 1006.5 |
| 20260505030104 | 43 | 241 | 7.0 | 13.0 | 0.00 | 0.24 | 0.00 | 88 | 1006.4 |
| 20260505024542 | 43 | 193 | 10.0 | 20.0 | 0.00 | 0.27 | 0.24 | 87 | 1006.1 |
| 20260505023045 | 43 | 228 | 11.0 | 18.0 | 0.00 | 0.27 | 0.24 | 87 | 1005.9 |
| 20260505021540 | 44 | 203 | 10.0 | 17.0 | 0.00 | 0.27 | 0.24 | 86 | 1005.7 |
| 20260505014546 | 45 | 226 | 8.0 | 15.0 | 0.00 | 0.27 | 0.24 | 83 | 1005.4 |
| 20260505013044 | 45 | 201 | 8.0 | 17.0 | 0.00 | 0.27 | 0.24 | 82 | 1005.5 |
| 20260505011546 | 46 | 174 | 8.0 | 17.0 | 0.00 | 0.27 | 0.24 | 81 | 1005.6 |
| 20260505010057 | 46 | 218 | 10.0 | 16.0 | 0.00 | 0.27 | 0.24 | 80 | 1005.4 |
| 20260505004557 | 46 | 207 | 8.0 | 15.0 | 0.00 | 0.30 | 0.24 | 79 | 1005.1 |
| 20260505003037 | 47 | 189 | 5.0 | 11.0 | 0.00 | 0.30 | 0.24 | 77 | 1005.2 |
| 20260505001540 | 47 | 199 | 6.0 | 13.0 | 0.00 | 0.30 | 0.24 | 76 | 1005.1 |
| 20260505000042 | 48 | 208 | 11.0 | 17.0 | 0.00 | 0.30 | 0.24 | 74 | 1005.2 |
| 20260504234540 | 48 | 229 | 7.0 | 13.0 | 0.00 | 0.33 | 0.24 | 72 | 1004.7 |
| 20260504233038 | 47 | 213 | 6.0 | 15.0 | 0.00 | 0.33 | 0.24 | 74 | 1004.4 |
| 20260504231544 | 48 | 184 | 8.0 | 16.0 | 0.00 | 0.33 | 0.24 | 71 | 1004.4 |
| 20260504230038 | 51 | 210 | 9.0 | 17.0 | 0.00 | 0.33 | 0.24 | 63 | 1004.0 |
| 20260504224544 | 54 | 199 | 13.0 | 21.0 | 0.00 | 0.48 | 0.24 | 50 | 1003.7 |
| 20260504223039 | 54 | 231 | 11.0 | 29.0 | 0.00 | 0.48 | 0.24 | 50 | 1003.5 |
| 20260504221554 | 54 | 208 | 12.0 | 28.0 | 0.00 | 0.48 | 0.24 | 49 | 1003.6 |
| 20260504220043 | 55 | 242 | 16.0 | 30.0 | 0.00 | 0.48 | 0.24 | 47 | 1003.2 |
| 20260504214543 | 55 | 248 | 16.0 | 30.0 | 0.00 | 0.66 | 0.24 | 48 | 1003.2 |
| 20260504213043 | 55 | 230 | 16.0 | 26.0 | 0.00 | 0.66 | 0.24 | 48 | 1003.1 |
| 20260504211538 | 55 | 248 | 16.0 | 27.0 | 0.00 | 0.66 | 0.24 | 49 | 1002.8 |
| 20260504210046 | 55 | 245 | 21.0 | 32.0 | 0.00 | 0.66 | 0.24 | 51 | 1002.9 |
| 20260504204537 | 55 | 261 | 12.0 | 34.0 | 0.00 | 0.78 | 0.24 | 54 | 1002.5 |
| 20260504203044 | 55 | 233 | 21.0 | 38.0 | 0.00 | 0.78 | 0.24 | 51 | 1002.4 |
| 20260504201538 | 55 | 208 | 17.0 | 40.0 | 0.00 | 0.78 | 0.24 | 55 | 1002.1 |
| 20260504200038 | 55 | 234 | 21.0 | 35.0 | 0.00 | 0.78 | 0.24 | 59 | 1001.6 |
| 20260504194542 | 56 | 233 | 15.0 | 35.0 | 0.00 | 0.83 | 0.24 | 61 | 1001.4 |
| 20260504193044 | 55 | 247 | 19.0 | 32.0 | 0.00 | 0.83 | 0.24 | 62 | 1000.9 |
| 20260504191607 | 55 | 258 | 11.0 | 36.0 | 0.00 | 0.83 | 0.24 | 64 | 1000.9 |
| 20260504190040 | 55 | 234 | 12.0 | 30.0 | 0.00 | 0.83 | 0.24 | 64 | 1000.8 |
| 20260504184549 | 54 | 268 | 19.0 | 31.0 | 0.00 | 0.86 | 0.24 | 67 | 1000.7 |
| 20260504183038 | 53 | 241 | 15.0 | 32.0 | 0.00 | 0.86 | 0.24 | 69 | 1000.8 |
| 20260504181544 | 52 | 281 | 12.0 | 35.0 | 0.00 | 0.86 | 0.24 | 73 | 1000.6 |
| 20260504180043 | 50 | 216 | 13.0 | 35.0 | 0.00 | 0.86 | 0.24 | 77 | 1000.6 |
| 20260504174538 | 50 | 233 | 20.0 | 46.0 | 0.00 | 0.86 | 0.24 | 77 | 1000.6 |
| 20260504173038 | 50 | 239 | 17.0 | 42.0 | 0.00 | 0.86 | 0.24 | 77 | 1000.3 |
| 20260504171541 | 49 | 261 | 24.0 | 43.0 | 0.00 | 0.86 | 0.24 | 77 | 1000.1 |
| 20260504081542 | 36 | 220 | 22.0 | 37.0 | 0.01 | 0.73 | 0.11 | 97 | 981.6 |
| 20260504044537 | 38 | 228 | 15.0 | 29.0 | 0.00 | 0.65 | 0.03 | 99 | 975.1 |
| 20260504043044 | 38 | 184 | 15.0 | 28.0 | 0.01 | 0.65 | 0.03 | 99 | 974.3 |